Regional Weather Roundup
Issued by NWS Upton, NY

Current Version | Previous Version | Text Only | Print | Product List | Glossary On
Versions: 1 2 3 4 5 6 7 8 9 10 11 12 13 14 15 16 17 18 19 20 21 22 23 24 25 26 27 28 29 30 31 32 33 34 35 36 37 38 39 40 41 42 43 44 45 46 47 48 49 50
000 ASUS41 KOKX 270505 RWROKX REGIONAL WEATHER ROUNDUP NATIONAL WEATHER SERVICE NEW YORK NY 1200 AM EST THU NOV 27 2014 NOTE: "FAIR" INDICATES FEW OR NO CLOUDS BELOW 12,000 FEET WITH NO SIGNIFICANT WEATHER AND/OR OBSTRUCTIONS TO VISIBILITY. NYZ071-072-176-178-NJZ106-104-270600- NEW YORK CITY METRO AREA CITY SKY/WX TMP DP RH WIND PRES REMARKS CENTRAL PARK CLOUDY 35 32 88 N8 29.85R WCI 29 LAGUARDIA APRT CLOUDY 36 32 85 N15 29.83R WCI 27 KENNEDY INTL FLURRIES 36 32 85 N20G28 29.83R WCI 25 NEWARK/LIBERTY CLOUDY 37 33 85 NW12 29.85R WCI 29 BRNX BOT. GARD N/A 34 32 93 NW8 29.83R WCI 27 TETERBORO LGT RAIN 36 31 82 N8 29.84R WCI 30 $$ NYZ177-179-078>081-270600- LONG ISLAND NEW YORK CITY SKY/WX TMP DP RH WIND PRES REMARKS FARMINGDALE MIX PCPN 36 32 85 N14G24 29.79R WCI 27 ISLIP LGT SNOW 36 33 89 NW20G26 29.75R FOG WCI 25 SHIRLEY LGT SNOW 37 34 89 NW17G23 29.76R FOG WCI 27 WESTHAMPTON LGT RAIN 37 34 89 N20G25 29.74R FOG WCI 27 MONTAUK POINT N/A 38 34 85 N15G29 29.69R WCI 29 $$ NYZ052-065-067-270600- HUDSON VALLEY CITY SKY/WX TMP DP RH WIND PRES REMARKS WHITE PLAINS CLOUDY 33 29 85 N20 29.78S WCI 21 NEWBURGH LGT SNOW 32 30 93 NE6 29.86 WCI 26 MONTGOMERY LGT SNOW 33 31 92 CALM 29.85S FOG POUGHKEEPSIE LGT SNOW 33 30 88 N13G20 29.86R FOG WCI 24 ALBANY LGT SNOW 31 29 92 N10 29.90S FOG WCI 22 $$ NJZ001-105-106-008-010-013-015-019>022-104-270600- NEW JERSEY CITY SKY/WX TMP DP RH WIND PRES REMARKS NEWARK/LIBERTY CLOUDY 37 33 85 NW12 29.85R WCI 29 TETERBORO LGT RAIN 36 31 82 N8 29.84R WCI 30 CALDWELL CLOUDY 35 31 85 CALM 29.86R MORRISTOWN N/A 37 32 81 N8 29.86R WCI 31 SOMERVILLE CLOUDY 36 30 79 NW9 29.85R WCI 29 SUSSEX CLOUDY 34 29 82 N6 29.86R WCI 29 ANDOVER N/A 33 30 88 VRB5 29.86R WCI 29 TRENTON CLOUDY 35 31 85 NW3 29.87R MILLVILLE CLOUDY 35 33 92 W9 29.93R WCI 28 ATLANTIC CITY CLOUDY 36 35 96 W12 29.91R WCI 28 WRIGHTSTOWN CLOUDY 35 34 94 W8 29.86R WCI 29 TOMS RIVER MOCLDY 36 34 93 NW3 29.88R BELMAR CLOUDY 36 30 80 NW10 29.85R WCI 28 $$ PAZ047>061-062-071-270600- EASTERN PENNSYLVANIA CITY SKY/WX TMP DP RH WIND PRES REMARKS PHILADELPHIA CLOUDY 38 31 76 W8 29.93R WCI 32 ALLENTOWN CLOUDY 35 29 78 W6 29.90R WCI 30 SCRANTON CLOUDY 32 27 81 W10 29.91R WCI 24 $$ CTZ002-004>006-009-010-012-RIZ004-006-007-MAZ004-011-015-270600- SOUTHERN NEW ENGLAND IN CT CITY SKY/WX TMP DP RH WIND PRES REMARKS BRADLEY INTL LGT SNOW 35 31 85 N10 29.76R FOG WCI 27 HARTFORD FLURRIES 34 31 88 N10 29.78R WCI 26 DANBURY CLOUDY 33 27 78 NW13G21 29.81R WCI 24 WTRBRY/OXFORD CLOUDY 32 25 74 N15G22 29.77R WCI 22 BRIDGEPORT CLOUDY 35 32 88 NW17G24 29.77S WCI 25 MERIDEN LGT SNOW 34 31 88 N10 29.77R FOG WCI 26 NEW HAVEN LGT RAIN 38 33 82 NW13G21 29.76R WCI 30 CHESTER MIX PCPN 34 32 93 N18G32 29.71R WCI 23 GROTON LGT RAIN 35 35 100 N15G25 29.68R FOG WCI 25 WILLIMANTIC LGT SNOW 34 31 88 N9 29.73R FOG WCI 27 IN RI CITY SKY/WX TMP DP RH WIND PRES REMARKS PROVIDENCE LGT RAIN 34 31 88 N24G36 29.66R WCI 21 BLOCK ISLAND CLOUDY 36 32 87 N17G28 29.65R WCI 25 WESTERLY LGT SNOW 35 32 88 N14G25 29.67R FOG WCI 26 IN MA CITY SKY/WX TMP DP RH WIND PRES REMARKS BOSTON LGT SNOW 34 31 88 N15G25 29.69R FOG WCI 24 WORCESTER LGT SNOW 30 29 96 N15G26 29.68F FOG WCI 19 WESTFIELD LGT SNOW 33 31 92 N10 29.77R FOG WCI 25 PROVINCETOWN CLOUDY 43 39 87 N31G44 29.56S NANTUCKET LGT RAIN 46 44 93 N26G35 29.47R FOG $$ ANZ330-335-338-340-345-350-353-355-270600- COASTAL MARINE OBSERVATIONS STATION/POSITION TIME SKY/WX TEMP WIND PRES VSBY WAVE AIR SEA DIR/SP/G HT/PER (UTC) (F) (DEG/KT/KT) (MB) (MI) (FT/S) NY HARB ENTRANCE 0500 40 55 330/ 27/ 35 1009.1 8/10 4S FIRE IS 0500 52 N/A 9/ 9 20S FIRE ISLAND 0400 40 54 340/ 23/ 29 1006.3 12/ 9 23SW MTP 0500 N/A 12/ 8 HUDSON CANYON 0500 44 59 330/ 23/ 31 1006.6 14/ 9 EXECUTION ROCKS 0500 37 48 320/ 19/ 27 N/A WESTERN LI SOUND 0500 38 340/ 19/ 25 N/A 2/ 5 CENTRAL LI SOUND 0400 37 50 350/ 21/ 27 N/A 3/ 4 EASTERN LI SOUND 0400 39 52 360/ 19/ 27 N/A ROBBINS REEF 0500 36 330/ 10/ 14 1009.0 $$ >>>>>>>>>>>>>>>>>>>>>>>>>>>> KEY <<<<<<<<<<<<<<<<<<<<<<<<<<< > < > SKY/WX - SKY CONDITION/PRESENT WEATHER < > TMP - TEMPERATURE IN FAHRENHEIT < > DP - DEWPOINT IN FAHRENHEIT < > RH - RELATIVE HUMIDITY IN PERCENT < > WIND - DIRECTION AND SPEED IN MPH < > PRES - MEAN SEA LEVEL PRESSURE IN INCHES OF HG < > WCI - WIND CHILL INDEX < > VSB - VISIBILITY IN MILES < > HX - HEAT INDEX < > TC - TEMPERATURE IN CELSIUS < > VRB - VARIABLE WIND DIRECTION < > < >>>>>>>>>>>>>>>>>>>>>>>>>>>> KEY <<<<<<<<<<<<<<<<<<<<<<<<<<<

USA.gov is the U.S. government's official web portal to all federal, state and local government web resources and services.